Tracking 17856 objects as of 28-September-2016
HD Live streaming from Space Station
objects crossing your sky now

COSMOS 963

Track COSMOS 963 now!
10-day predictions
COSMOS 963 is classified as:


NORAD ID: 10491
Int'l Code: 1977-109A
Perigee: 1,188.8 km
Apogee: 1,213.5 km
Inclination: 82.9 °
Period: 109.3 minutes
Semi major axis: 7572 km
RCS: 3.0327 m2 (large)
Launch date: November 24, 1977
Source: Commonwealth of Independent States (former USSR) (CIS)
Launch site: PLESETSK MISSILE AND SPACE COMPLEX (PKMTR)
Your satellite tracking list
Your tracking list is empty





NASA's NSSDC Master Catalog

Two Line Element Set (TLE):
1 10491U 77109A   16272.15423553  .00000028  00000-0  38765-4 0  9998
2 10491  82.9296 133.8054 0016272  37.3744  76.7860 13.17568634868586
Source of the keplerian elements: AFSPC

N2YO: 691